RH
18 20 21 22 23 21 19 18 18 18 18 20 21 20 21 20 20 22 22 21 20 21 24 23 23 23 22 21 20 21 23 25 27 28 30 30 30 31 30 29 29 30 32 33 34 34 32 30 28 27 28 28 28 30 31 33 35 35 36 33 30 27 25 25 25 27 31 33 31 28 27 27 28 28 27 26 24 24 22 19 19 19 18 18 17 18
18 20 22 20 20 20 19 20 19 19 19 20 21 21 22 21 22 25 23 21 21 22 26 25 22 23 24 21 20 20 21 22 25 27 28 29 29 30 29 28 29 32 34 33 34 35 33 32 31 30 30 31 31 32 33 34 35 38 39 37 33 29 26 27 27 27 30 33 33 30 27 26 26 25 26 25 19 15 13 12 12 12 12 11 12 12
18 21 21 19 19 20 21 22 20 20 21 21 20 21 23 22 24 26 23 22 22 22 26 26 22 24 26 23 21 21 21 21 24 26 26 27 27 27 27 28 28 31 34 35 36 36 35 35 34 33 33 34 35 36 36 36 36 39 40 39 36 32 29 30 29 29 30 30 29 27 24 23 23 21 21 21 15 12 12 11 11 11 10 13 16 18
20 22 20 18 20 22 23 23 21 21 23 21 20 22 25 25 24 26 28 27 24 23 26 26 21 22 25 23 21 21 22 24 25 25 26 26 25 25 26 28 29 31 34 36 38 39 39 38 38 37 37 36 37 38 38 38 38 39 42 41 38 35 33 32 32 32 31 27 24 22 18 17 18 15 14 14 13 12 13 12 12 11 11 15 21 24
21 23 20 19 22 22 22 23 22 22 24 23 22 22 26 29 25 25 32 32 27 25 25 23 21 21 23 24 22 21 21 23 23 23 24 24 24 24 25 28 30 32 35 38 40 41 41 41 41 41 40 38 38 39 39 39 39 40 43 43 40 38 36 35 37 36 31 26 24 21 16 15 16 14 14 15 15 14 14 14 13 12 12 14 19 24
23 24 22 22 23 21 21 24 23 22 26 28 23 21 24 28 26 24 29 29 26 27 28 25 21 22 25 26 25 23 21 23 23 22 23 23 23 24 25 27 29 33 36 38 40 41 42 42 42 43 43 42 41 41 40 39 40 42 43 44 43 40 37 38 42 41 31 25 26 23 18 18 18 17 20 21 19 16 17 16 14 14 14 14 18 23
24 24 23 23 22 22 23 25 25 22 25 29 27 23 22 23 25 26 26 26 25 28 31 28 22 24 27 28 28 25 22 24 26 24 24 24 25 25 25 26 28 31 35 37 39 41 43 44 44 44 43 42 43 43 42 42 42 43 42 44 44 40 38 41 45 43 32 25 27 24 19 19 21 23 24 22 18 17 17 16 15 15 14 14 16 19
23 23 23 23 23 24 24 26 29 25 24 32 33 28 24 26 28 29 29 28 27 28 30 28 24 24 25 28 31 27 23 25 26 27 26 26 27 28 28 29 29 30 32 35 37 39 42 45 44 43 42 41 43 43 43 44 44 44 42 44 44 40 39 43 45 43 32 26 27 25 20 19 22 25 22 18 17 17 17 16 16 15 14 14 15 15
24 23 24 25 25 25 25 27 30 27 26 32 34 30 29 32 33 33 31 29 30 30 28 28 27 26 24 27 31 28 24 27 29 29 28 27 28 30 31 32 32 32 32 33 35 38 41 45 44 43 42 41 41 41 42 45 47 46 44 45 43 39 40 42 44 41 31 25 26 25 21 19 22 24 21 19 19 18 17 16 15 14 13 13 13 14
27 25 24 23 24 26 27 29 30 30 32 34 33 30 31 32 33 34 32 31 33 32 27 30 33 30 25 27 31 29 26 29 32 30 29 28 29 30 32 34 35 34 34 33 33 35 38 42 44 44 42 40 39 39 40 44 49 49 48 46 43 38 35 37 39 36 28 26 26 25 21 18 20 21 20 21 20 18 18 16 14 14 14 13 13 13
25 24 23 22 21 23 26 30 32 33 34 34 33 33 33 33 33 33 32 30 32 31 29 33 35 30 25 26 29 31 30 31 32 31 30 29 29 30 32 33 33 33 33 32 31 31 31 34 39 42 42 39 38 38 38 41 47 51 50 45 40 34 28 31 36 34 30 27 25 24 23 19 18 19 19 19 19 18 18 16 16 18 19 16 14 13
24 23 23 21 19 19 21 26 30 31 32 33 34 35 36 36 36 34 32 32 29 29 32 32 31 28 25 26 29 30 27 27 30 31 31 30 30 30 32 32 32 32 32 31 30 30 29 31 34 37 40 39 38 38 40 40 44 49 48 43 40 35 31 34 38 35 31 28 24 25 25 21 19 19 18 17 17 17 17 17 18 20 22 19 16 15
23 23 21 20 20 18 19 24 28 29 29 31 32 35 35 34 39 38 34 35 31 30 35 32 29 29 26 28 31 29 25 24 28 29 29 29 29 30 31 31 31 31 32 30 30 30 28 30 34 34 37 40 39 40 42 41 42 46 46 44 44 43 42 42 42 39 33 27 24 24 25 24 21 20 18 18 19 19 19 21 20 19 22 22 19 17
22 23 20 20 21 19 18 23 28 28 30 31 31 34 34 33 40 39 32 33 31 31 36 33 31 30 27 30 31 27 25 24 25 26 27 27 28 28 29 29 30 31 32 32 32 31 28 29 34 35 36 40 40 40 40 39 40 44 45 47 49 47 47 47 46 43 34 28 26 25 25 26 25 23 20 20 22 22 24 27 23 22 25 25 23 20
21 27 25 23 23 21 19 21 25 27 30 34 32 32 33 33 37 36 32 34 34 36 40 38 34 31 30 35 33 28 28 26 25 26 27 28 28 28 29 29 30 32 35 37 38 38 35 33 37 39 39 43 44 42 39 38 41 42 43 48 49 45 46 48 45 40 33 30 30 29 28 29 29 29 25 24 24 23 26 28 25 25 27 28 28 26
18 23 23 21 21 20 20 20 21 23 26 30 30 29 30 30 32 33 34 35 34 36 39 36 33 30 31 35 33 31 32 30 29 29 29 30 29 30 32 31 32 35 38 44 48 49 47 42 42 43 43 47 48 46 43 41 41 39 40 46 46 44 46 45 41 37 35 34 34 33 33 34 33 33 32 31 29 26 26 28 28 28 28 30 31 29
20 21 20 19 20 20 20 21 20 20 24 28 28 27 27 27 29 33 36 36 34 33 32 30 31 30 31 32 30 30 32 30 31 31 31 32 31 31 32 32 33 35 41 49 52 54 56 54 50 47 47 47 47 48 47 44 42 40 41 45 46 45 46 45 44 44 40 37 37 37 39 41 40 39 39 38 36 32 30 31 31 31 31 32 33 31
22 23 23 20 20 20 20 22 21 21 22 25 27 28 29 28 29 32 34 34 34 34 31 30 33 31 30 34 34 33 31 30 30 30 31 32 31 32 32 33 34 35 41 50 53 54 56 58 56 54 52 50 50 52 50 46 44 42 44 47 49 50 48 48 49 48 43 40 43 48 52 53 52 49 47 45 43 38 33 32 34 34 35 35 35 35
22 22 24 22 19 20 20 20 22 22 22 23 25 25 27 31 32 36 38 36 35 35 33 31 32 30 27 30 35 35 33 32 31 31 31 32 32 34 34 35 37 38 40 47 53 55 56 57 58 59 58 56 56 57 57 54 52 48 47 48 51 53 51 50 49 47 44 46 51 56 60 59 56 54 53 52 51 48 42 39 39 37 36 36 36 37
25 25 27 26 23 20 19 20 21 23 24 24 25 24 25 27 29 32 36 36 37 40 40 35 33 31 29 29 33 35 34 34 34 35 34 34 35 37 38 38 40 40 40 43 48 54 57 59 61 62 62 61 59 60 61 61 60 59 57 53 53 56 54 52 50 48 47 51 55 57 57 57 55 56 55 54 55 55 51 46 43 42 41 39 38 38
26 28 27 26 27 24 22 25 26 27 28 26 26 27 29 29 29 31 31 31 34 37 38 38 35 33 33 34 34 37 37 36 36 37 37 38 39 41 42 42 41 40 40 40 42 47 51 56 60 62 63 63 62 61 61 62 63 66 66 62 60 61 59 56 55 54 53 53 54 55 55 55 55 56 56 54 54 53 52 49 45 44 44 44 44 42
26 28 27 27 29 27 26 30 31 29 27 26 27 28 29 32 34 36 35 35 36 35 34 36 34 32 34 35 35 37 39 37 35 36 37 39 42 44 45 45 43 41 40 40 40 42 44 47 51 55 58 58 60 62 63 63 64 67 70 69 67 66 65 65 64 62 61 60 57 55 54 54 54 55 54 53 53 53 53 51 50 48 47 47 48 48
24 24 25 25 25 24 26 28 29 29 26 25 26 25 26 29 31 33 35 35 36 35 35 37 36 37 38 37 35 36 37 36 36 37 38 39 42 44 46 46 45 42 41 42 42 41 41 40 41 43 47 51 56 61 64 62 63 66 68 70 70 69 68 70 70 68 69 69 66 61 58 56 55 55 55 54 54 55 55 56 56 54 52 51 51 51
24 22 22 24 23 23 24 23 24 27 28 28 30 31 32 30 31 35 36 35 36 38 42 46 44 43 43 41 39 38 36 38 40 39 38 41 44 45 45 47 49 47 45 42 42 41 40 38 37 36 39 44 48 53 57 59 60 62 61 62 65 66 68 69 70 71 72 72 68 63 60 61 62 60 60 60 59 57 56 56 56 57 56 55 53 51
25 25 27 27 24 26 26 23 22 23 24 28 35 41 39 32 33 37 35 35 40 40 40 43 42 41 45 45 44 43 40 39 41 40 40 42 44 45 45 47 51 53 50 46 44 43 41 40 39 38 37 39 41 42 44 47 51 54 56 59 60 61 64 66 66 68 71 71 68 65 63 64 67 68 66 66 67 66 64 59 57 58 60 58 56 53
25 28 31 29 26 28 27 25 26 26 27 31 35 35 35 33 37 42 41 41 46 45 44 44 40 40 46 47 45 44 42 40 40 39 39 40 43 45 47 48 49 50 48 46 44 43 40 40 41 41 41 40 40 40 39 39 41 47 53 58 60 60 61 63 62 62 63 64 63 64 65 65 68 73 72 70 70 71 72 67 62 61 61 61 60 57
27 29 30 28 28 29 27 26 29 30 32 36 36 34 35 37 38 41 43 44 46 50 52 50 45 43 44 43 43 43 40 38 39 37 37 40 42 44 46 48 48 47 46 45 45 45 43 41 41 41 42 41 41 41 41 41 40 42 46 50 52 52 54 58 61 61 61 62 61 62 64 63 66 71 74 75 73 71 71 69 66 65 63 62 61 58
31 31 31 32 31 29 28 29 30 31 31 33 34 36 38 40 41 43 43 40 42 48 48 45 45 46 42 38 41 43 40 39 40 39 37 38 40 41 43 44 45 45 45 44 45 47 47 45 42 40 39 39 40 40 40 43 42 39 39 41 41 42 43 47 53 57 58 61 62 63 64 62 63 65 67 70 72 72 72 70 68 70 71 67 61 56
33 32 33 37 36 31 31 33 32 33 34 34 36 38 39 42 44 46 46 43 43 46 44 41 42 45 42 38 39 42 41 39 40 42 42 42 42 41 41 41 40 40 41 42 42 42 44 44 43 41 38 38 40 40 39 42 43 41 39 38 38 38 38 39 43 47 51 54 56 58 59 59 59 61 60 60 63 66 69 69 66 66 69 67 61 57
33 36 37 40 39 35 35 38 38 38 39 39 41 41 42 42 43 45 47 45 44 44 44 44 45 45 43 41 39 41 40 37 39 44 48 48 45 42 41 41 40 40 40 40 40 40 40 42 42 42 41 41 40 40 40 40 41 43 42 41 39 38 37 37 39 40 43 46 48 50 52 53 54 55 54 53 53 54 58 63 64 62 60 60 59 59
37 43 44 45 44 39 38 41 42 43 43 43 43 43 43 44 44 45 46 46 46 46 44 46 46 43 41 40 38 39 39 38 39 44 47 46 45 45 45 44 43 42 42 41 42 42 42 43 44 43 43 43 41 41 40 40 40 41 42 42 41 39 39 40 40 40 41 43 45 47 48 49 50 50 49 49 48 47 48 53 59 61 59 58 58 58
45 49 50 51 49 45 43 44 44 44 44 43 44 44 45 45 46 47 48 48 50 49 47 47 46 42 41 42 40 41 43 43 43 44 46 47 48 48 48 47 46 46 44 43 43 43 43 44 45 46 45 44 44 44 43 41 41 41 40 40 41 40 41 43 43 45 46 46 47 48 47 46 46 46 47 46 45 44 44 45 50 56 60 60 60 57
52 54 54 55 53 49 46 47 46 45 44 43 43 43 44 45 46 46 47 47 50 51 50 49 47 44 45 47 45 44 47 49 47 46 48 50 50 48 48 48 47 47 46 46 45 44 44 44 45 46 45 44 44 44 42 41 40 39 37 35 36 36 36 39 41 41 41 42 43 43 42 41 42 42 42 41 38 38 40 41 42 46 52 57 58 57
58 58 55 54 52 48 45 46 47 44 40 41 43 43 42 42 43 43 44 45 48 49 47 44 42 43 43 44 44 44 46 51 52 52 53 53 52 51 50 49 48 47 47 47 46 46 46 46 46 46 45 44 42 39 37 37 36 36 36 36 35 32 32 34 35 32 30 31 33 34 33 33 34 34 34 34 32 30 32 35 36 37 42 45 45 47
58 55 51 47 46 43 41 45 48 44 40 41 42 40 39 39 39 39 40 41 43 43 40 38 38 40 39 38 40 44 46 49 54 55 55 55 54 54 55 54 52 50 49 49 49 49 49 49 49 48 47 45 42 39 38 38 37 36 38 38 36 33 32 31 31 29 27 26 26 27 28 27 27 26 25 25 26 24 24 26 28 30 36 38 35 36
50 48 44 42 43 42 42 46 47 43 42 43 42 39 38 39 38 39 40 41 40 37 38 38 37 39 41 39 38 41 43 45 48 50 51 52 55 57 59 59 55 52 52 53 53 52 52 52 51 52 52 49 46 44 43 43 41 39 38 37 35 34 34 33 31 30 28 27 26 25 25 24 22 23 22 22 23 23 20 19 19 23 31 38 38 37
46 47 45 45 45 45 46 46 45 44 43 44 46 45 43 42 43 44 45 46 43 38 39 41 42 43 47 45 41 40 42 43 45 46 45 47 51 55 57 57 54 52 53 54 54 54 53 54 55 54 54 52 50 49 47 45 44 42 39 37 36 34 34 33 32 30 29 29 28 25 23 23 22 21 23 23 25 27 24 20 18 19 26 36 40 39
46 48 50 50 48 48 50 48 47 47 46 49 53 51 46 45 46 46 47 48 46 42 41 45 48 49 51 51 47 45 45 46 51 55 50 45 48 51 50 50 48 48 50 50 50 52 53 54 55 54 53 52 51 50 50 48 47 46 44 43 40 38 37 36 34 33 32 31 29 24 23 22 21 21 22 23 26 29 27 23 21 20 25 34 38 40
49 49 51 51 49 50 53 51 49 48 49 53 56 52 47 47 48 50 53 54 50 47 46 49 53 54 55 54 52 50 51 51 60 67 60 51 53 55 51 49 49 49 51 51 51 53 55 55 56 54 52 51 51 51 49 47 46 46 45 45 44 44 43 41 38 37 37 35 31 27 26 24 22 21 21 21 24 27 28 26 24 26 32 37 38 39
53 53 52 53 52 52 54 54 51 49 51 55 57 54 50 50 53 58 61 60 57 54 52 55 59 59 58 57 55 54 54 56 64 71 64 57 61 63 58 57 57 57 57 58 58 59 59 58 58 56 55 53 53 51 49 48 48 48 48 48 48 48 48 45 43 42 41 38 33 30 29 27 25 24 22 21 22 26 30 29 27 30 36 39 39 41
57 57 54 54 54 52 54 56 51 49 55 57 55 55 53 53 58 64 63 62 61 59 56 57 61 63 62 62 61 61 61 61 63 66 66 64 65 65 64 63 63 62 63 63 63 63 63 61 60 58 57 57 56 55 55 54 54 54 54 54 53 52 50 46 44 45 43 39 37 35 33 30 28 27 27 26 26 30 34 34 32 34 39 40 42 44
58 59 55 55 56 53 54 57 53 53 60 59 54 55 57 58 62 64 62 61 62 62 61 61 63 65 66 65 65 66 66 64 61 62 65 67 66 66 66 67 66 66 66 66 65 65 64 63 62 61 60 60 60 59 59 59 59 59 59 58 57 55 51 48 48 47 44 41 39 38 36 33 30 29 31 32 35 38 39 37 37 40 41 41 43 44
61 62 57 55 57 54 53 55 55 55 60 60 58 59 61 62 63 62 61 62 63 62 62 62 63 66 67 67 68 68 67 66 65 65 67 67 66 66 67 68 69 67 66 64 64 63 61 60 60 60 60 60 59 58 58 57 57 57 57 57 57 55 52 51 50 49 46 43 40 37 34 32 31 31 33 35 38 41 39 37 38 40 40 41 42 41
58 58 55 54 57 57 57 59 60 60 61 63 64 65 65 63 63 62 61 62 63 62 62 61 61 62 64 66 68 68 67 67 68 68 69 68 68 67 65 66 66 65 62 60 60 60 61 60 59 58 57 55 54 56 56 53 52 52 53 53 52 50 48 48 47 47 46 41 36 34 34 34 34 36 36 36 37 38 38 38 39 40 40 41 41 41
54 55 57 59 61 61 59 59 59 59 58 59 61 61 62 61 60 58 57 58 60 61 60 60 60 61 61 61 62 62 62 61 59 59 59 59 59 59 58 59 59 59 58 57 55 55 56 56 56 56 54 50 48 49 50 50 47 45 44 43 42 41 41 41 40 41 40 38 35 35 36 37 38 39 38 35 34 35 36 37 38 40 40 41 43 47
51 54 57 58 56 54 53 53 53 53 53 53 54 55 56 55 54 54 55 56 56 55 55 56 57 57 57 57 57 57 58 59 58 56 54 52 49 48 47 46 46 47 47 46 45 44 44 44 46 46 45 42 40 40 43 45 44 42 40 40 40 39 37 36 36 35 33 32 32 32 33 35 35 35 35 33 33 35 35 34 36 39 39 40 44 47
50 53 54 54 54 53 52 50 49 48 48 49 49 49 50 49 49 52 56 57 55 55 55 53 50 49 50 51 51 51 51 53 55 55 53 52 51 49 47 45 44 44 44 43 43 42 40 39 37 36 35 34 34 34 35 36 38 39 39 38 38 37 34 32 32 31 30 29 29 29 32 33 33 32 34 35 34 35 36 37 38 40 38 35 38 46
52 55 53 52 52 52 50 47 45 44 44 45 45 44 45 46 47 50 53 56 55 54 53 50 46 45 46 46 46 46 45 45 46 46 44 44 44 43 42 41 40 40 40 40 40 40 38 36 32 31 30 29 29 30 29 28 30 31 31 30 30 30 29 28 28 28 30 32 33 33 36 38 37 35 35 36 36 37 38 40 40 40 41 39 38 47
53 53 51 50 49 48 46 44 43 42 42 43 41 41 41 43 45 45 46 48 49 49 50 48 45 44 45 44 44 45 43 43 45 46 44 41 37 35 33 33 32 33 33 34 34 33 33 31 28 27 27 26 26 27 27 27 27 28 28 28 27 28 29 29 29 30 33 36 36 37 41 44 42 39 38 38 38 38 40 41 39 42 54 58 54 58
53 51 51 53 51 48 45 43 43 47 47 44 41 40 39 41 45 45 44 44 43 42 44 45 44 44 44 43 43 44 43 42 44 45 42 39 36 34 33 32 32 33 33 34 34 34 34 32 30 29 29 28 27 27 27 27 27 28 28 28 29 31 32 32 33 35 37 40 44 46 49 48 45 45 46 45 43 42 41 40 42 50 62 64 57 60
49 47 49 54 54 50 45 44 49 54 52 47 47 47 45 45 47 47 45 46 44 43 43 44 44 45 44 40 39 41 41 41 42 42 40 38 36 35 34 35 37 39 38 37 37 36 35 33 33 33 33 32 31 29 28 28 29 29 30 30 31 33 35 36 39 42 43 46 50 53 54 53 53 55 53 47 44 44 40 38 45 54 60 62 63 67